Location: Unspecified
(0.0000°N, 0.0000°E)
Time: 10:03:58
(UTC+00:00)

A-11 Canister half - Pass Details

Date: 05 August 2021
Orbit: 1526 x 1683 km, 47.3° (Epoch: 27 September)

Event Time Altitude Azimuth Distance (km) Brightness Sun altitude
Rises 19:14:16 0° 315° (NW) 4,770 12.7 -16.3°
Reaches altitude 10° 19:17:24 10° 313° (NW) 3,766 12.0 -17.1°
Maximum altitude 19:26:51 71° 231° (SW) 1,614 9.1 -19.3°
Enters shadow 19:34:11 18° 150° (SSE) 3,091 10.2 -21.1°
